Radiation Dose at Monitoring Post of Fukushima Daini Nuclear Power Station
Date,Time,MP-1(microSv/h),MP-2(microSv/h),MP-3(microSv/h),MP-4(microSv/h),MP-5(microSv/h),MP-6(microSv/h),MP-7(microSv/h),Wind Direction,Wind Velocity(m/s),Rain
2019/12/14,00:00,0.185,0.166,0.281,0.263,0.256,0.143,0.087,southwest,4.4,No
2019/12/14,00:10,0.185,0.166,0.282,0.262,0.255,0.142,0.088,west-southwest,4.0,No
2019/12/14,00:20,0.184,0.167,0.283,0.262,0.256,0.142,0.087,southwest,4.2,No
2019/12/14,00:30,0.184,0.165,0.282,0.263,0.257,0.142,0.087,west-southwest,3.8,No
2019/12/14,00:40,0.184,0.166,0.281,0.263,0.255,0.142,0.088,west-southwest,3.5,No
2019/12/14,00:50,0.185,0.166,0.280,0.262,0.256,0.143,0.088,southwest,4.6,No
2019/12/14,01:00,0.184,0.165,0.283,0.263,0.257,0.142,0.088,southwest,5.1,No
2019/12/14,01:10,0.184,0.167,0.284,0.263,0.257,0.143,0.088,southwest,4.8,No
2019/12/14,01:20,0.185,0.165,0.281,0.263,0.255,0.142,0.088,southwest,5.2,No
2019/12/14,01:30,0.184,0.166,0.281,0.264,0.256,0.141,0.088,southwest,4.3,No
2019/12/14,01:40,0.184,0.167,0.283,0.262,0.257,0.142,0.088,southwest,4.7,No
2019/12/14,01:50,0.184,0.165,0.282,0.264,0.257,0.142,0.088,southwest,4.7,No
2019/12/14,02:00,0.185,0.167,0.283,0.263,0.256,0.142,0.088,southwest,4.5,No
2019/12/14,02:10,0.184,0.166,0.281,0.262,0.256,0.142,0.088,southwest,3.6,No
2019/12/14,02:20,0.185,0.165,0.283,0.263,0.256,0.143,0.087,southwest,4.3,No
2019/12/14,02:30,0.184,0.166,0.283,0.263,0.255,0.141,0.087,southwest,4.4,No
2019/12/14,02:40,0.185,0.166,0.283,0.263,0.255,0.142,0.088,southwest,4.2,No
2019/12/14,02:50,0.185,0.165,0.282,0.264,0.257,0.142,0.088,south-southwest,4.2,No
2019/12/14,03:00,0.185,0.167,0.282,0.263,0.256,0.143,0.087,south-southwest,4.0,No
2019/12/14,03:10,0.185,0.167,0.283,0.264,0.256,0.142,0.088,south-southwest,3.6,No
2019/12/14,03:20,0.185,0.165,0.284,0.263,0.257,0.142,0.088,south-southwest,4.0,No
2019/12/14,03:30,0.185,0.166,0.281,0.264,0.256,0.142,0.088,south-southwest,4.1,No
2019/12/14,03:40,0.185,0.166,0.281,0.263,0.256,0.142,0.088,south-southwest,4.5,No
2019/12/14,03:50,0.185,0.167,0.282,0.263,0.256,0.143,0.088,south-southwest,4.5,No
2019/12/14,04:00,0.185,0.165,0.283,0.263,0.255,0.142,0.088,south-southwest,4.5,No
2019/12/14,04:10,0.185,0.166,0.281,0.263,0.256,0.142,0.088,south,5.0,No
2019/12/14,04:20,0.184,0.167,0.283,0.263,0.256,0.142,0.088,south,4.8,No
2019/12/14,04:30,0.184,0.166,0.283,0.262,0.256,0.142,0.088,south-southwest,4.5,No
2019/12/14,04:40,0.184,0.166,0.282,0.263,0.256,0.143,0.088,south-southwest,4.8,No
2019/12/14,04:50,0.184,0.166,0.282,0.263,0.256,0.142,0.088,south,4.6,No
2019/12/14,05:00,0.185,0.166,0.281,0.264,0.256,0.142,0.088,south-southwest,4.9,No
2019/12/14,05:10,0.185,0.166,0.282,0.263,0.256,0.142,0.088,south-southwest,4.3,No
2019/12/14,05:20,0.184,0.166,0.283,0.263,0.256,0.142,0.088,south-southwest,5.0,No
2019/12/14,05:30,0.184,0.166,0.284,0.263,0.257,0.142,0.088,south-southwest,4.9,No
2019/12/14,05:40,0.186,0.166,0.284,0.263,0.256,0.143,0.088,south-southwest,4.8,No
2019/12/14,05:50,0.185,0.166,0.282,0.263,0.256,0.143,0.088,south-southwest,3.8,No
2019/12/14,06:00,0.185,0.166,0.283,0.263,0.257,0.142,0.088,south-southwest,3.7,No
2019/12/14,06:10,0.185,0.167,0.282,0.264,0.257,0.142,0.088,southwest,3.9,No
2019/12/14,06:20,0.185,0.166,0.283,0.264,0.256,0.142,0.088,southwest,3.4,No
2019/12/14,06:30,0.183,0.166,0.282,0.263,0.256,0.142,0.088,southwest,3.8,No
2019/12/14,06:40,0.186,0.166,0.281,0.263,0.257,0.143,0.088,southwest,4.1,No
2019/12/14,06:50,0.184,0.166,0.282,0.263,0.256,0.143,0.089,southwest,4.6,No
2019/12/14,07:00,0.185,0.166,0.283,0.263,0.256,0.142,0.087,southwest,4.7,No
2019/12/14,07:10,0.185,0.167,0.283,0.263,0.256,0.142,0.088,south-southwest,5.4,No
2019/12/14,07:20,0.185,0.166,0.283,0.264,0.258,0.142,0.087,south-southwest,5.4,No
2019/12/14,07:30,0.185,0.166,0.283,0.263,0.256,0.142,0.088,south-southwest,6.1,No
2019/12/14,07:40,0.184,0.166,0.281,0.263,0.257,0.141,0.087,south-southwest,5.7,No
2019/12/14,07:50,0.185,0.166,0.281,0.263,0.255,0.142,0.088,south-southwest,6.0,No
2019/12/14,08:00,0.186,0.165,0.284,0.263,0.258,0.142,0.088,south-southwest,7.0,No
2019/12/14,08:10,0.184,0.167,0.281,0.264,0.257,0.143,0.087,south-southwest,7.7,No
2019/12/14,08:20,0.185,0.166,0.281,0.262,0.255,0.142,0.087,south-southwest,7.7,No
2019/12/14,08:30,0.185,0.166,0.281,0.264,0.257,0.141,0.088,south,7.7,No
2019/12/14,08:40,0.185,0.166,0.282,0.263,0.256,0.142,0.088,south-southwest,6.0,No
2019/12/14,08:50,0.185,0.167,0.282,0.262,0.255,0.142,0.088,south-southwest,6.5,No
2019/12/14,09:00,0.185,0.165,0.281,0.262,0.258,0.142,0.087,south-southwest,6.1,No
2019/12/14,09:10,0.185,0.166,0.283,0.263,0.256,0.142,0.088,south-southwest,5.4,No
2019/12/14,09:20,0.184,0.167,0.281,0.262,0.256,0.142,0.087,south-southwest,5.7,No
2019/12/14,09:30,0.184,0.166,0.280,0.264,0.256,0.142,0.087,south-southwest,6.5,No
2019/12/14,09:40,0.185,0.166,0.282,0.262,0.255,0.142,0.087,south-southwest,6.0,No
2019/12/14,09:50,0.184,0.166,0.281,0.262,0.258,0.142,0.087,south-southwest,6.1,No
2019/12/14,10:00,0.183,0.165,0.282,0.263,0.256,0.143,0.087,south-southwest,5.5,No
2019/12/14,10:10,0.185,0.165,0.282,0.261,0.256,0.142,0.087,south,5.2,No
2019/12/14,10:20,0.184,0.164,0.282,0.263,0.255,0.142,0.086,south-southwest,6.2,No
2019/12/14,10:30,0.183,0.165,0.282,0.262,0.256,0.142,0.087,south-southwest,8.1,No
2019/12/14,10:40,0.184,0.165,0.282,0.262,0.255,0.141,0.087,south-southwest,7.8,No
2019/12/14,10:50,0.184,0.165,0.281,0.263,0.255,0.141,0.088,south-southwest,8.2,No
2019/12/14,11:00,0.183,0.166,0.281,0.262,0.255,0.143,0.088,south-southwest,8.5,No
2019/12/14,11:10,0.185,0.166,0.281,0.263,0.256,0.142,0.087,south,6.4,No
2019/12/14,11:20,0.183,0.166,0.279,0.262,0.256,0.142,0.088,south-southwest,5.9,No
2019/12/14,11:30,0.185,0.164,0.283,0.265,0.255,0.141,0.087,southwest,5.9,No
2019/12/14,11:40,0.181,0.165,0.280,0.262,0.254,0.141,0.087,south,6.2,No
2019/12/14,11:50,0.184,0.166,0.281,0.263,0.256,0.142,0.087,south,7.4,No
2019/12/14,12:00,0.182,0.166,0.280,0.261,0.254,0.142,0.088,south-southwest,6.5,No
2019/12/14,12:10,0.183,0.166,0.281,0.263,0.257,0.142,0.087,south,4.5,No
2019/12/14,12:20,0.184,0.166,0.279,0.261,0.254,0.142,0.087,south,3.8,No
2019/12/14,12:30,0.183,0.165,0.281,0.262,0.256,0.143,0.087,west-southwest,2.2,No
2019/12/14,12:40,0.184,0.166,0.280,0.263,0.256,0.142,0.087,west-northwest,5.6,No
2019/12/14,12:50,0.185,0.165,0.283,0.260,0.255,0.142,0.088,west-northwest,6.7,No
2019/12/14,13:00,0.181,0.165,0.282,0.263,0.257,0.142,0.087,west,5.0,No
2019/12/14,13:10,0.185,0.165,0.282,0.262,0.257,0.142,0.088,west,3.9,No
2019/12/14,13:20,0.184,0.167,0.282,0.261,0.255,0.142,0.088,west-northwest,2.2,No
2019/12/14,13:30,0.182,0.164,0.281,0.263,0.257,0.143,0.087,west-southwest,1.9,No
2019/12/14,13:40,0.184,0.166,0.281,0.261,0.256,0.142,0.087,west-northwest,1.5,No
2019/12/14,13:50,0.184,0.165,0.281,0.262,0.257,0.142,0.087,west,3.1,No
2019/12/14,14:00,0.184,0.166,0.283,0.263,0.255,0.141,0.087,west,3.8,No
2019/12/14,14:10,0.184,0.164,0.282,0.260,0.254,0.142,0.087,west,4.6,No
2019/12/14,14:20,0.184,0.166,0.281,0.263,0.256,0.142,0.088,northwest,5.2,No
2019/12/14,14:30,0.185,0.165,0.282,0.262,0.255,0.142,0.087,west-northwest,3.1,No
2019/12/14,14:40,0.185,0.166,0.282,0.264,0.256,0.141,0.087,west-northwest,1.3,No
2019/12/14,14:50,0.185,0.165,0.283,0.263,0.255,0.142,0.087,west,3.2,No
2019/12/14,15:00,0.184,0.166,0.280,0.264,0.258,0.141,0.087,west,4.9,No
2019/12/14,15:10,0.186,0.166,0.283,0.264,0.256,0.143,0.088,west-southwest,3.2,No
2019/12/14,15:20,0.185,0.166,0.282,0.265,0.256,0.141,0.087,northwest,2.8,No
2019/12/14,15:30,0.183,0.167,0.281,0.263,0.258,0.143,0.087,west,5.9,No
2019/12/14,15:40,0.185,0.167,0.283,0.265,0.256,0.142,0.088,west-northwest,5.4,No
2019/12/14,15:50,0.185,0.167,0.282,0.263,0.257,0.143,0.087,west-northwest,6.4,No
2019/12/14,16:00,0.184,0.166,0.283,0.264,0.256,0.142,0.088,west-northwest,3.4,No
2019/12/14,16:10,0.185,0.165,0.282,0.264,0.258,0.143,0.087,west-northwest,8.6,No
2019/12/14,16:20,0.185,0.166,0.282,0.262,0.257,0.142,0.087,west-northwest,14.7,No
2019/12/14,16:30,0.185,0.166,0.284,0.264,0.257,0.143,0.088,west,15.6,No
2019/12/14,16:40,0.185,0.165,0.283,0.264,0.258,0.143,0.088,west-northwest,14.5,No
2019/12/14,16:50,0.184,0.166,0.284,0.264,0.257,0.143,0.088,west-northwest,13.7,No
2019/12/14,17:00,0.186,0.167,0.284,0.265,0.258,0.144,0.089,west-northwest,14.6,No
2019/12/14,17:10,0.184,0.166,0.282,0.264,0.258,0.142,0.088,west,14.2,No
2019/12/14,17:20,0.186,0.166,0.283,0.263,0.257,0.143,0.087,west,12.2,No
2019/12/14,17:30,0.186,0.167,0.284,0.264,0.258,0.143,0.088,west-northwest,10.1,No
2019/12/14,17:40,0.185,0.166,0.283,0.264,0.259,0.144,0.088,west,8.7,No
2019/12/14,17:50,0.187,0.167,0.283,0.264,0.256,0.144,0.088,west,9.5,No
2019/12/14,18:00,0.186,0.167,0.285,0.265,0.258,0.143,0.088,west,8.7,No
2019/12/14,18:10,0.186,0.167,0.284,0.264,0.258,0.143,0.088,west-northwest,10.9,No
2019/12/14,18:20,0.186,0.166,0.283,0.264,0.256,0.143,0.087,west,8.8,No
2019/12/14,18:30,0.185,0.166,0.283,0.264,0.257,0.143,0.088,west,9.2,Yes
2019/12/14,18:40,0.185,0.166,0.283,0.263,0.258,0.143,0.087,west,9.8,No
2019/12/14,18:50,0.186,0.167,0.283,0.265,0.256,0.143,0.087,west,8.7,No
2019/12/14,19:00,0.185,0.167,0.284,0.265,0.257,0.143,0.088,west,9.6,No
2019/12/14,19:10,0.185,0.167,0.284,0.263,0.257,0.143,0.088,west,7.4,No
2019/12/14,19:20,0.185,0.167,0.283,0.264,0.257,0.143,0.088,west-northwest,8.7,No
2019/12/14,19:30,0.185,0.166,0.284,0.265,0.258,0.143,0.088,west,7.3,No
2019/12/14,19:40,0.185,0.166,0.284,0.265,0.257,0.143,0.087,northwest,3.6,No
2019/12/14,19:50,0.186,0.166,0.282,0.263,0.257,0.143,0.088,north,3.9,No
2019/12/14,20:00,0.186,0.168,0.284,0.264,0.256,0.143,0.088,north-northeast,6.3,No
2019/12/14,20:10,0.186,0.167,0.283,0.264,0.257,0.143,0.087,north,3.8,No
2019/12/14,20:20,0.186,0.165,0.282,0.264,0.256,0.142,0.088,north,4.9,No
2019/12/14,20:30,0.186,0.166,0.284,0.263,0.256,0.141,0.088,north,4.2,No
2019/12/14,20:40,0.185,0.166,0.283,0.264,0.258,0.143,0.088,north,3.2,No
2019/12/14,20:50,0.185,0.166,0.282,0.264,0.257,0.143,0.087,north-northwest,2.1,No
2019/12/14,21:00,0.186,0.166,0.283,0.263,0.257,0.143,0.088,north,3.0,No
2019/12/14,21:10,0.183,0.167,0.283,0.264,0.256,0.143,0.088,north,2.0,No
2019/12/14,21:20,0.185,0.167,0.282,0.264,0.256,0.143,0.087,north-northeast,1.6,No
2019/12/14,21:30,0.186,0.166,0.282,0.264,0.257,0.142,0.088,northwest,2.5,No
2019/12/14,21:40,0.185,0.165,0.284,0.264,0.257,0.142,0.088,north-northwest,1.2,Yes
2019/12/14,21:50,0.185,0.166,0.284,0.265,0.257,0.143,0.089,northwest,1.2,No
2019/12/14,22:00,0.186,0.166,0.282,0.264,0.257,0.142,0.088,west,2.6,No
2019/12/14,22:10,0.185,0.167,0.282,0.265,0.257,0.143,0.087,west,5.7,No
2019/12/14,22:20,0.186,0.167,0.285,0.265,0.257,0.143,0.089,west,7.1,No
2019/12/14,22:30,0.186,0.166,0.283,0.265,0.256,0.143,0.088,west,8.5,No
2019/12/14,22:40,0.185,0.166,0.283,0.264,0.257,0.143,0.088,west-northwest,6.8,No
2019/12/14,22:50,0.185,0.166,0.284,0.265,0.256,0.143,0.088,west-northwest,8.2,No
2019/12/14,23:00,0.185,0.166,0.284,0.264,0.257,0.143,0.088,west-northwest,9.5,No
2019/12/14,23:10,0.185,0.166,0.283,0.264,0.257,0.143,0.088,west-northwest,7.8,No
2019/12/14,23:20,0.185,0.168,0.283,0.263,0.256,0.143,0.088,northwest,7.3,No
2019/12/14,23:30,0.185,0.166,0.284,0.263,0.256,0.143,0.088,west-northwest,5.4,No
2019/12/14,23:40,0.186,0.166,0.283,0.264,0.256,0.143,0.087,west-northwest,7.3,No
2019/12/14,23:50,0.186,0.167,0.282,0.264,0.256,0.142,0.088,northwest,6.6,No
